Location: *
(49.9853°N, 3.5569°E)
Time: 03:37:53
(UTC+00:00)

Cosmos 1441 Rocket - Pass Details

Date: 22 September 2019
Orbit: 496 x 541 km, 81.1° (Epoch: 17 October)

Event Time Altitude Azimuth Distance (km) Brightness Sun altitude
Rises 18:44:28 0° 199° (SSW) 2,613 6.9 -10.4°
Reaches altitude 10° 18:46:38 10° 203° (SSW) 1,725 6.0 -10.7°
Maximum altitude 18:50:22 61° 285° (WNW) 579 3.8 -11.3°
Drops below altitude 10° 18:54:06 10° 6° (N) 1,720 6.0 -11.9°
Sets 18:56:15 0° 10° (N) 2,605 6.8 -12.2°
